Location: Chenango Forks
(42.2242°N, 75.8278°W)
Time: 22:52:29
(UTC-04:00)

Daily predictions for brighter satellites

Satellite Brightness Start Highest point End
(mag) Time Altitude Azimuth Time Altitude Azimuth Time Altitude Azimuth
Meteor 1-29 3.3 20:58:15 10° NNE 21:01:30 43° E 21:04:43 10° S
Okean 1-7 Rocket 4.2 20:57:34 10° SSE 21:01:40 38° E 21:05:51 10° NNE
Cosmos 405 Rocket 2.8 21:00:12 10° S 21:03:58 85° WNW 21:07:50 10° N
Cosmos 1238 Rocket 4.3 20:57:39 10° SSE 21:04:09 53° E 21:10:20 10° NNE
Cosmos 1536 Rocket 4.1 21:00:29 10° SSW 21:04:45 62° W 21:09:04 10° N
OAO 2 Rocket 4.1 21:01:01 10° WSW 21:05:29 35° S 21:10:00 10° ESE
Aureole 3 Rocket 3.5 20:59:30 10° S 21:05:35 72° E 21:09:55 10° NNE
SJ-11-01 4.3 21:02:32 10° SSE 21:07:13 75° ENE 21:11:56 10° N
ISS -3.5 21:04:10 10° WSW 21:07:28 74° NNW 21:10:46 10° NE
Aureole 1 Rocket 2.1 21:05:16 10° SSW 21:08:29 75° ESE 21:11:27 10° NNE
Cosmos 1441 Rocket 3.2 21:07:50 10° S 21:11:30 59° E 21:15:11 10° NNE
Meteor 1-19 Rocket 4.4 21:07:45 10° S 21:13:34 85° W 21:19:19 10° N
ASTEX 1 3.7 21:09:26 10° SSE 21:14:10 51° E 21:18:54 10° N
Meteor 1-23 Rocket 4.4 21:10:41 10° S 21:16:06 55° E 21:21:35 10° NNE
Intercosmos 24 4.3 21:12:52 10° N 21:16:26 38° ENE 21:19:45 10° SSE
Cosmos 1025 Rocket 3.2 21:13:57 10° SSE 21:18:03 49° E 21:22:11 10° NNE
Cosmos 2112 Rocket 4.1 21:13:58 10° SSW 21:19:12 83° WNW 21:24:25 10° NNE
USA 186 3.8 21:16:33 10° SSW 21:19:16 26° W 21:21:57 10° NW
Lacrosse 5 rocket 4.3 21:18:02 10° NNW 21:20:06 13° N 21:22:10 10° NNE
Okean 2 3.8 21:20:15 10° SSE 21:24:07 43° E 21:28:00 10° NNE
Cosmos 1624 Rocket 4.3 21:20:24 10° NNW 21:25:37 57° ENE 21:30:27 12° SE
USA 245 4.4 21:26:05 11° E 21:26:59 13° ENE 21:28:07 10° NE
Cosmos 2074 Rocket 4.4 21:23:58 10° NNW 21:30:12 68° W 21:36:24 10° S
Cosmos 2082 Rocket 3.2 21:26:34 10° SSE 21:31:08 26° ESE 21:35:42 10° NE
COSMOS 2406 4.2 21:26:00 10° SW 21:31:34 52° WNW 21:37:08 10° NNE
Cosmos 2278 4.3 21:26:10 10° NNW 21:31:39 45° ENE 21:36:16 14° SE
H-2A R/B 3.4 21:28:36 11° ESE 21:32:13 24° ENE 21:36:13 10° NNE
SL-27 R/B 3.4 21:28:47 10° SSW 21:32:21 53° WNW 21:35:57 10° N
Cosmos 2184 Rocket 4.4 21:28:21 10° NNW 21:34:38 66° W 21:40:50 10° S
Cosmos 2058 Rocket 4.1 21:32:07 10° NNE 21:36:05 31° ENE 21:39:01 16° SE
PSLV R/B 4.0 21:34:10 10° W 21:37:01 33° SSW 21:38:47 18° SE
Meteor 1-15 Rocket 4.2 21:31:37 10° N 21:37:13 74° E 21:42:38 11° SSE
Cosmos 2181 Rocket 4.5 21:31:58 10° SSE 21:37:53 43° E 21:43:45 10° NNE
MOS 1-B Rocket 4.2 21:32:35 12° SSE 21:37:58 60° ENE 21:44:27 10° N
Cosmos 2056 Rocket 3.4 21:39:57 10° NNW 21:45:08 78° ENE 21:49:17 16° SSE
YAOGAN 6 3.1 21:43:23 10° S 21:46:49 56° W 21:50:17 10° NNW
Meteor 1-4 Rocket 4.3 21:45:19 10° NNE 21:47:54 18° ENE 21:49:11 15° E
Envisat 4.3 21:43:21 10° SSW 21:48:02 37° W 21:52:44 10° NNW
Cosmos 1697 Rocket 3.8 21:44:41 10° N 21:49:42 32° NE 21:53:32 15° ESE
Resurs 01 Rocket 4.5 21:49:49 10° WSW 21:51:43 13° W 21:53:38 10° WNW
Cosmos 2369 3.9 21:46:13 10° NNW 21:51:55 63° ENE 21:56:03 19° SE
Cosmos 839 Rocket 4.4 21:46:33 10° NNW 21:53:06 77° ENE 21:59:18 18° SE
Cosmos 1656 4.2 21:47:53 10° NNW 21:53:08 46° ENE 21:56:49 19° SE
H-2A R/B 3.9 21:54:53 14° E 21:57:09 19° ENE 22:00:20 10° NNE
Cosmos 962 Rocket 4.5 21:51:20 10° N 21:57:35 76° E 22:02:44 15° SSE
NOSS 8 (F) 4.3 21:56:05 10° SSW 21:59:35 74° ESE 22:03:10 10° NE
Tiangong 2 1.1 21:58:41 10° W 22:01:53 79° N 22:04:08 18° E
Meteor 2-19 Rocket 4.4 21:57:54 10° N 22:04:05 88° ENE 22:09:15 15° S
Cosmos 1833 Rocket 2.9 22:01:02 11° S 22:06:07 46° ESE 22:11:29 10° NE
MetOp-A 4.2 22:02:23 15° S 22:06:49 80° WSW 22:12:13 10° NNW
COSMOS 2487 2.3 22:10:54 15° SSW 22:13:45 84° ESE 22:17:20 10° NNE
Cosmos 1437 Rocket 3.6 22:10:41 10° NNW 22:14:22 45° W 22:17:17 15° SSW
Terra 2.9 22:12:17 21° ESE 22:14:26 30° ENE 22:18:33 10° N
SL-8 Rocket 4.1 22:08:43 10° N 22:14:58 64° E 22:18:59 23° SSE
Cosmos 1452 Rocket 3.7 22:11:47 10° NNW 22:17:01 62° ENE 22:19:50 27° SE
TELKOM 3 3.3 22:17:42 10° WNW 22:20:06 84° NNE 22:20:45 50° ESE
Cosmos 2228 2.9 22:16:13 10° N 22:20:32 81° E 22:22:38 29° SSE
Cosmos 2366 rocket 4.2 22:15:15 10° N 22:21:16 52° ENE 22:24:34 26° SE
SPOT 5 2.6 22:18:47 24° S 22:21:19 77° WSW 22:25:43 10° NNW
Cosmos 921 Rocket 3.3 22:17:52 10° NNW 22:22:19 64° WSW 22:24:47 25° S
NOSS 8 (H) 4.3 22:19:13 10° SSW 22:22:35 86° SE 22:26:10 10° NE
SPOT 1/Viking Rocket 3.5 22:20:35 26° SSE 22:23:35 79° ENE 22:28:45 10° N
Cosmos 1066 Rocket 4.2 22:20:34 21° S 22:24:17 66° E 22:29:53 10° NNE
Iridium 43 3.6 22:23:30 10° N 22:25:29 66° NNW 22:25:29 66° NNW
ERS-1 Rocket 4.1 22:21:27 11° SSW 22:25:55 38° W 22:30:36 10° NNW
Cosmos 1980 Rocket 2.8 22:33:07 10° NNW 22:38:34 46° ENE 22:41:05 28° ESE
Cosmos 1953 4.3 22:36:10 10° NNE 22:38:52 17° ENE 22:39:20 17° E
Cosmos 1602 Rocket 3.5 22:40:41 41° SSE 22:42:01 65° E 22:46:19 10° NNE
ARGOS 3.8 22:39:41 20° SSW 22:43:15 50° W 22:48:32 10° NNW
Cosmos 1959 Rocket 4.5 22:37:19 10° N 22:43:44 88° E 22:47:14 29° S
ISS -1.0 22:41:51 10° WNW 22:44:24 20° NNW 22:46:56 10° NE
Cosmos 468 4.4 22:41:29 25° S 22:44:33 74° ESE 22:49:51 10° NNE
SL-08 RB Rocket 4.3 22:44:22 26° SSW 22:46:35 49° W 22:50:57 10° NNW
Cosmos 2322 Rocket 3.9 22:44:55 10° N 22:49:25 23° NE 22:52:24 16° E
Cosmos 1766 3.3 22:46:45 10° N 22:50:36 57° E 22:51:05 53° ESE
Meteor 1-21 4.4 22:49:13 36° SSE 22:51:18 55° E 22:56:54 10° NNE
USA 229 DEB 4.0 22:44:38 10° NNW 22:51:44 63° NE 22:55:40 29° ESE
USA 229 4.0 22:44:45 10° NNW 22:51:50 63° NE 22:55:46 29° ESE
deb Chang Zheng 4 3.7 22:49:38 10° NNE 22:53:51 52° E 22:54:23 48° SE
Meteor 2-14 Rocket 4.4 22:50:08 10° N 22:56:14 76° E 22:58:47 37° SSE
CZ-3A R/B 2.8 22:55:01 10° W 22:55:52 14° WNW 22:55:52 14° WNW
Timation 2 Rocket 3.9 22:52:16 20° SSW 22:56:49 76° ESE 23:02:59 10° NNE
SL-08 R/B 4.4 22:51:45 10° N 22:57:53 83° W 23:00:52 32° S
Lacrosse 5 rocket 3.7 22:57:15 10° NNW 23:00:54 22° NNE 23:04:29 10° ENE
Cosmos 2218 Rocket 4.2 22:57:06 10° NNW 23:03:13 66° W 23:06:29 29° SSW
Cosmos 158 Rocket 3.9 23:02:36 40° S 23:04:31 72° ESE 23:09:55 10° NNE
CARTOSAT-1 3.5 23:07:08 55° S 23:08:02 79° WSW 23:12:22 10° NNW
H-2A R/B 2.9 23:09:14 27° SSW 23:11:23 41° W 23:16:10 10° NNW
CZ-2C R/B 4.4 23:08:08 10° NE 23:11:37 17° E 23:11:39 17° E
Cosmos 2082 Rocket 3.1 23:09:28 10° SW 23:14:55 47° WNW 23:20:22 10° NNE
CZ-4B R/B 3.6 23:10:00 10° NNE 23:15:03 60° ESE 23:16:02 51° SSE
Meteor 2-16 Rocket 4.4 23:12:07 10° N 23:18:17 83° W 23:20:36 41° S
CZ-4 R/B 3.8 23:14:00 10° NNE 23:19:03 79° ESE 23:20:15 53° S
Cosmos 1805 3.2 23:16:59 10° N 23:20:47 70° ENE 23:20:47 70° ENE
Cosmos 1758 3.6 23:17:24 10° N 23:21:12 54° ENE 23:21:12 54° ENE
TRAILBLAZER 4.5 23:17:09 10° NW 23:21:46 78° WSW 23:22:19 67° S
Meteor 1-4 Rocket 4.2 23:20:04 10° NW 23:23:01 24° W 23:23:30 23° WSW
IGS 5A 3.9 23:25:25 48° SW 23:25:55 51° W 23:30:01 10° NNW
Nadezhda 3 Rocket 3.9 23:27:58 43° S 23:30:16 85° E 23:36:40 10° N
Cosmos 1758 Rocket 3.9 23:30:38 50° E 23:30:38 50° E 23:34:36 10° NNE
H-2A R/B 2.8 23:32:00 41° SW 23:32:48 46° W 23:37:10 10° NNW
Cosmos 1697 Rocket 3.6 23:28:33 10° NW 23:33:42 38° WSW 23:35:16 32° SW
ATLAS CENTAUR R/B 2.5 23:31:13 10° NNW 23:34:31 30° NE 23:34:34 30° NE
SL-19 R/B 4.4 23:29:16 10° N 23:34:32 62° WNW 23:36:43 34° SW
Cosmos 1812 Rocket 4.3 23:30:57 10° NNW 23:35:13 44° W 23:36:00 40° WSW
Tiangong 2 3.6 23:35:28 10° W 23:36:21 17° W 23:36:21 17° W
Cosmos 2360 4.2 23:32:59 10° NNW 23:38:42 73° WSW 23:39:55 54° S
SL-16 R/B 2.6 23:36:36 10° NNW 23:42:10 53° ENE 23:43:34 43° ESE
Iridium 2 4.4 23:38:40 10° NNW 23:42:13 45° W 23:42:13 45° W
Cosmos 1821 Rocket 4.0 23:38:38 10° N 23:44:57 77° E 23:46:37 52° SSE
CZ-4C R/B 3.7 23:48:47 53° NW 23:48:47 53° NW 23:51:43 10° NNW
Cosmos 389 Rocket 3.4 23:45:40 10° NNW 23:48:14 47° NNW 23:48:14 47° NNW
Cosmos 1842 4.3 23:48:56 37° W 23:49:16 38° WNW 23:52:59 10° N
Cosmos 972 Rocket 3.8 23:46:08 10° NNW 23:51:20 72° ENE 23:51:48 66° ESE
Cosmos 1331 Rocket 3.9 23:46:34 10° NNW 23:51:46 75° ENE 23:52:20 66° ESE
Terra 3.1 23:51:10 27° WSW 23:52:06 30° W 23:56:17 10° NW
Cosmos 1271 Rocket 4.0 23:49:09 10° NNW 23:52:36 32° W 23:52:36 32° W
Cosmos 1110 Rocket 3.8 23:49:24 10° NNW 23:54:41 89° ENE 23:55:14 72° SSE
